Location: Newark
(46.7000°N, 60.6000°W)
Time: 13:46:14
(UTC+00:00)

Vanguard 3 - All Passes

Search period start: 30 October 2020 00:00
Search period end: 09 November 2020 00:00
Orbit: 507 x 3263 km, 33.4° (Epoch: 29 October)

Date Brightness Start Highest point End Pass type
(mag) Time Alt. Az. Time Alt. Az. Time Alt. Az.
30 Oct - 06:31:33 10° S 06:41:09 20° SE 06:52:34 10° E visible
30 Oct - 08:38:42 10° SW 08:53:47 42° SSE 09:11:19 10° E visible
30 Oct - 10:50:44 10° WSW 11:08:43 54° S 11:26:10 10° ESE daylight
30 Oct - 13:05:37 10° W 13:23:48 46° SSW 13:38:26 10° SE daylight
30 Oct - 15:23:29 10° W 15:36:39 25° SW 15:46:54 10° S daylight
31 Oct - 07:25:35 10° SSW 07:38:14 32° SE 07:54:01 10° E visible
31 Oct - 09:35:43 10° SW 09:52:10 50° SSE 10:10:25 10° E visible
31 Oct - 11:49:11 10° WSW 12:07:32 52° S 12:24:08 10° ESE daylight
31 Oct - 14:05:14 10° W 14:21:45 35° SSW 14:34:48 10° SSE daylight
31 Oct - 16:27:33 10° WSW 16:33:15 12° SW 16:38:21 10° SSW daylight
01 Nov - 06:13:59 10° S 06:23:29 21° SE 06:35:19 10° E visible
01 Nov - 08:21:36 10° SW 08:36:01 43° SSE 08:53:52 10° E visible
01 Nov - 10:33:32 10° WSW 10:50:56 54° S 11:08:59 10° ESE daylight
01 Nov - 12:48:08 10° W 13:06:03 45° SSW 13:21:23 10° SE daylight
01 Nov - 15:06:03 10° W 15:19:00 23° SW 15:29:35 10° S daylight
02 Nov - 05:07:22 10° SE 05:09:30 10° SE 05:11:44 10° ESE visible
02 Nov - 07:08:30 10° SSW 07:20:33 34° SE 07:36:27 10° E visible
02 Nov - 09:18:41 10° WSW 09:34:24 51° SSE 09:53:00 10° ESE visible
02 Nov - 11:31:54 10° W 11:49:44 51° SSW 12:06:58 10° SE daylight
02 Nov - 13:47:46 10° W 14:04:00 34° SW 14:17:35 10° SSE daylight
02 Nov - 16:11:44 10° WSW 16:15:38 11° SW 16:19:17 10° SW daylight
03 Nov - 05:56:44 10° S 06:05:55 22° SE 06:17:52 10° E visible
03 Nov - 08:04:41 10° SW 08:18:20 45° SSE 08:36:15 10° E visible
03 Nov - 10:16:28 10° WSW 10:33:09 53° S 10:51:38 10° ESE visible
03 Nov - 12:30:48 10° W 12:48:14 43° SSW 13:04:10 10° SE daylight
03 Nov - 14:48:50 10° W 15:01:17 21° SW 15:11:58 10° S daylight
04 Nov - 04:48:29 10° SE 04:52:02 11° SE 04:55:59 10° ESE visible
04 Nov - 06:51:36 10° SSW 07:02:59 35° SSE 07:18:45 10° E visible
04 Nov - 09:01:48 10° WSW 09:16:42 52° S 09:35:27 10° ESE visible
04 Nov - 11:14:47 10° W 11:31:56 50° SSW 11:49:37 10° SE daylight
04 Nov - 13:30:27 10° W 13:46:11 31° SW 14:00:10 10° SSE daylight
05 Nov - 05:39:43 10° S 05:48:27 23° SE 06:00:17 10° E visible
05 Nov - 07:47:56 10° SW 08:00:44 45° SSE 08:18:32 10° E visible
05 Nov - 09:59:34 10° WSW 10:15:25 53° S 10:34:07 10° ESE visible
05 Nov - 12:13:38 10° W 12:30:24 41° SSW 12:46:44 10° SE daylight
05 Nov - 14:31:52 10° W 14:43:30 19° SW 14:53:59 10° S daylight
06 Nov - 04:30:39 10° SSE 04:34:41 12° SE 04:39:21 10° ESE visible
06 Nov - 06:34:52 10° SSW 06:45:31 36° SSE 07:00:57 10° E visible
06 Nov - 08:45:05 10° WSW 08:59:05 51° S 09:17:45 10° ESE visible
06 Nov - 10:57:49 10° W 11:14:08 48° SSW 11:32:05 10° SE daylight
06 Nov - 13:13:20 10° W 13:28:21 29° SW 13:42:28 10° SSE daylight
07 Nov - 05:22:55 10° S 05:31:07 24° SE 05:42:38 10° E visible
07 Nov - 07:31:18 10° SW 07:43:16 46° SSE 08:00:42 10° E visible
07 Nov - 09:42:47 10° WSW 09:57:43 51° S 10:16:27 10° ESE visible
07 Nov - 11:56:37 10° W 12:12:34 38° SSW 12:29:04 10° SSE daylight
07 Nov - 14:15:16 10° W 14:25:42 17° SW 14:35:32 10° SSW daylight
08 Nov - 04:13:18 10° SSE 04:17:27 13° SE 04:22:23 10° ESE visible
08 Nov - 06:18:18 10° SSW 06:28:10 36° SSE 06:43:05 10° E visible
08 Nov - 08:28:29 10° WSW 08:41:33 51° S 08:59:56 10° ESE visible
08 Nov - 10:40:59 10° W 10:56:23 45° SSW 11:14:22 10° SE daylight
08 Nov - 12:56:26 10° W 13:10:30 27° SW 13:24:27 10° S daylight
